Time,TemperatureF,DewpointF,PressureIn,WindDirection,WindDirectionDegrees,WindSpeedMPH,WindSpeedGustMPH,Humidity,HourlyPrecipIn,Conditions,Clouds,dailyrainin,SolarRadiationWatts/m^2,SoftwareType,DateUTC
2013-01-23 00:03:00,27.0,0.0,-100.00,NW,308,2.0,7.0,30,0.00,,,0.00,0.000000,,2013-01-23 05:03:00,
2013-01-23 00:12:00,27.0,0.0,-100.00,NW,308,2.0,7.0,30,0.00,,,0.00,0.000000,,2013-01-23 05:12:00,
2013-01-23 00:22:00,27.0,0.0,-100.00,NW,308,2.0,7.0,30,0.00,,,0.00,0.000000,,2013-01-23 05:22:00,
2013-01-23 00:33:00,27.0,0.0,-100.00,NW,308,2.0,7.0,30,0.00,,,0.00,0.000000,,2013-01-23 05:33:00,
2013-01-23 01:02:00,28.0,-4.0,-100.00,WNW,283,3.0,7.0,24,0.00,,,0.00,0.000000,,2013-01-23 06:02:00,
2013-01-23 01:12:00,28.0,-4.0,-100.00,WNW,283,3.0,7.0,24,0.00,,,0.00,0.000000,,2013-01-23 06:12:00,
2013-01-23 01:22:00,28.0,-4.0,-100.00,WNW,283,3.0,7.0,24,0.00,,,0.00,0.000000,,2013-01-23 06:22:00,
2013-01-23 01:32:00,28.0,-4.0,-100.00,WNW,283,3.0,7.0,24,0.00,,,0.00,0.000000,,2013-01-23 06:32:00,
2013-01-23 01:53:00,32.0,-6.0,-100.00,West,280,5.0,16.0,19,0.00,,,0.00,0.000000,,2013-01-23 06:53:00,
2013-01-23 02:02:00,32.0,-6.0,-100.00,West,280,5.0,16.0,19,0.00,,,0.00,0.000000,,2013-01-23 07:02:00,
2013-01-23 02:12:00,32.0,-6.0,-100.00,West,280,5.0,16.0,19,0.00,,,0.00,0.000000,,2013-01-23 07:12:00,
2013-01-23 02:22:00,32.0,-6.0,-100.00,West,280,5.0,16.0,19,0.00,,,0.00,0.000000,,2013-01-23 07:22:00,
2013-01-23 02:33:00,32.0,-6.0,-100.00,West,280,5.0,16.0,19,0.00,,,0.00,0.000000,,2013-01-23 07:33:00,
2013-01-23 02:53:00,31.0,-5.0,-100.00,West,277,2.0,10.0,20,0.00,,,0.00,0.000000,,2013-01-23 07:53:00,
2013-01-23 03:02:00,31.0,-5.0,-100.00,West,277,2.0,10.0,20,0.00,,,0.00,0.000000,,2013-01-23 08:02:00,
2013-01-23 03:13:00,31.0,-5.0,-100.00,West,277,2.0,10.0,20,0.00,,,0.00,0.000000,,2013-01-23 08:13:00,
2013-01-23 03:22:00,31.0,-5.0,-100.00,West,277,2.0,10.0,20,0.00,,,0.00,0.000000,,2013-01-23 08:22:00,
2013-01-23 03:33:00,31.0,-5.0,-100.00,West,277,2.0,10.0,20,0.00,,,0.00,0.000000,,2013-01-23 08:33:00,
2013-01-23 03:53:00,30.0,-6.0,-100.00,SSE,165,1.0,6.0,20,0.00,,,0.00,0.000000,,2013-01-23 08:53:00,
2013-01-23 04:03:00,30.0,-6.0,-100.00,SSE,165,1.0,6.0,20,0.00,,,0.00,0.000000,,2013-01-23 09:03:00,
2013-01-23 04:12:00,30.0,-6.0,-100.00,SSE,165,1.0,6.0,20,0.00,,,0.00,0.000000,,2013-01-23 09:12:00,
2013-01-23 04:22:00,30.0,-6.0,-100.00,SSE,165,1.0,6.0,20,0.00,,,0.00,0.000000,,2013-01-23 09:22:00,
2013-01-23 04:32:00,30.0,-6.0,-100.00,SSE,165,1.0,6.0,20,0.00,,,0.00,0.000000,,2013-01-23 09:32:00,
2013-01-23 04:53:00,25.0,-3.0,-100.00,South,178,2.0,4.0,29,0.00,,,0.00,0.000000,,2013-01-23 09:53:00,
2013-01-23 05:03:00,25.0,-3.0,-100.00,South,178,2.0,4.0,29,0.00,,,0.00,0.000000,,2013-01-23 10:03:00,
2013-01-23 05:12:00,25.0,-3.0,-100.00,South,178,2.0,4.0,29,0.00,,,0.00,0.000000,,2013-01-23 10:12:00,
2013-01-23 05:23:00,25.0,-3.0,-100.00,South,178,2.0,4.0,29,0.00,,,0.00,0.000000,,2013-01-23 10:23:00,
2013-01-23 05:33:00,25.0,-3.0,-100.00,South,178,2.0,4.0,29,0.00,,,0.00,0.000000,,2013-01-23 10:33:00,
2013-01-23 05:53:00,25.0,-1.0,-100.00,NNE,20,1.0,4.0,32,0.00,,,0.00,0.000000,,2013-01-23 10:53:00,
2013-01-23 06:02:00,25.0,-1.0,-100.00,NNE,20,1.0,4.0,32,0.00,,,0.00,0.000000,,2013-01-23 11:02:00,
2013-01-23 06:12:00,25.0,-1.0,-100.00,NNE,20,1.0,4.0,32,0.00,,,0.00,0.000000,,2013-01-23 11:12:00,
2013-01-23 06:23:00,25.0,-1.0,-100.00,NNE,20,1.0,4.0,32,0.00,,,0.00,0.000000,,2013-01-23 11:23:00,
2013-01-23 06:33:00,25.0,-1.0,-100.00,NNE,20,1.0,4.0,32,0.00,,,0.00,0.000000,,2013-01-23 11:33:00,
2013-01-23 06:53:00,22.0,2.0,-100.00,NNE,18,4.0,4.0,41,0.00,,,0.00,0.000000,,2013-01-23 11:53:00,
2013-01-23 07:03:00,22.0,2.0,-100.00,NNE,18,4.0,4.0,41,0.00,,,0.00,0.000000,,2013-01-23 12:03:00,
2013-01-23 07:12:00,22.0,2.0,-100.00,NNE,18,4.0,4.0,41,0.00,,,0.00,0.000000,,2013-01-23 12:12:00,
2013-01-23 07:22:00,22.0,2.0,-100.00,NNE,18,4.0,4.0,41,0.00,,,0.00,0.000000,,2013-01-23 12:22:00,
2013-01-23 07:33:00,22.0,2.0,-100.00,NNE,18,4.0,4.0,41,0.00,,,0.00,0.000000,,2013-01-23 12:33:00,
2013-01-23 07:53:00,22.0,2.0,-100.00,West,278,0.0,5.0,41,0.00,,,0.00,0.000000,,2013-01-23 12:53:00,
2013-01-23 08:04:00,22.0,2.0,-100.00,West,278,0.0,5.0,41,0.00,,,0.00,0.000000,,2013-01-23 13:04:00,
2013-01-23 08:13:00,22.0,2.0,-100.00,West,278,0.0,5.0,41,0.00,,,0.00,0.000000,,2013-01-23 13:13:00,
2013-01-23 08:23:00,22.0,2.0,-100.00,West,278,0.0,5.0,41,0.00,,,0.00,0.000000,,2013-01-23 13:23:00,
2013-01-23 08:33:00,22.0,2.0,-100.00,West,278,0.0,5.0,41,0.00,,,0.00,0.000000,,2013-01-23 13:33:00,
2013-01-23 08:53:00,34.0,-4.0,-100.00,North,350,3.0,7.0,19,0.00,,,0.00,0.000000,,2013-01-23 13:53:00,
2013-01-23 09:03:00,34.0,-4.0,-100.00,North,350,3.0,7.0,19,0.00,,,0.00,0.000000,,2013-01-23 14:03:00,
2013-01-23 09:12:00,34.0,-4.0,-100.00,North,350,3.0,7.0,19,0.00,,,0.00,0.000000,,2013-01-23 14:12:00,
2013-01-23 09:23:00,34.0,-4.0,-100.00,North,350,3.0,7.0,19,0.00,,,0.00,0.000000,,2013-01-23 14:23:00,
2013-01-23 09:33:00,34.0,-4.0,-100.00,North,350,3.0,7.0,19,0.00,,,0.00,0.000000,,2013-01-23 14:33:00,
2013-01-23 09:53:00,34.0,-5.0,-100.00,North,2,1.0,7.0,18,0.00,,,0.00,2.000000,,2013-01-23 14:53:00,
2013-01-23 10:03:00,34.0,-5.0,-100.00,North,2,1.0,7.0,18,0.00,,,0.00,2.000000,,2013-01-23 15:03:00,
2013-01-23 10:12:00,34.0,-5.0,-100.00,North,2,1.0,7.0,18,0.00,,,0.00,2.000000,,2013-01-23 15:12:00,
2013-01-23 10:23:00,34.0,-5.0,-100.00,North,2,1.0,7.0,18,0.00,,,0.00,2.000000,,2013-01-23 15:23:00,
2013-01-23 10:33:00,34.0,-5.0,-100.00,North,2,1.0,7.0,18,0.00,,,0.00,2.000000,,2013-01-23 15:33:00,
2013-01-23 11:03:00,36.0,-5.0,-100.00,NNW,335,4.0,8.0,17,0.00,,,0.00,45.000000,,2013-01-23 16:03:00,
2013-01-23 11:12:00,36.0,-5.0,-100.00,NNW,335,4.0,8.0,17,0.00,,,0.00,45.000000,,2013-01-23 16:12:00,
2013-01-23 11:23:00,36.0,-5.0,-100.00,NNW,335,4.0,8.0,17,0.00,,,0.00,45.000000,,2013-01-23 16:23:00,
2013-01-23 11:33:00,36.0,-5.0,-100.00,NNW,335,4.0,8.0,17,0.00,,,0.00,45.000000,,2013-01-23 16:33:00,
2013-01-23 12:03:00,39.0,-2.0,-100.00,NW,312,2.0,8.0,17,0.00,,,0.00,125.000000,,2013-01-23 17:03:00,
2013-01-23 12:12:00,39.0,-2.0,-100.00,NW,312,2.0,8.0,17,0.00,,,0.00,125.000000,,2013-01-23 17:12:00,
2013-01-23 12:23:00,39.0,-2.0,-100.00,NW,312,2.0,8.0,17,0.00,,,0.00,125.000000,,2013-01-23 17:23:00,
2013-01-23 12:33:00,39.0,-2.0,-100.00,NW,312,2.0,8.0,17,0.00,,,0.00,125.000000,,2013-01-23 17:33:00,
2013-01-23 13:03:00,41.0,-3.0,-100.00,NW,316,3.0,8.0,15,0.00,,,0.00,216.000000,,2013-01-23 18:03:00,
2013-01-23 13:12:00,41.0,-3.0,-100.00,NW,316,3.0,8.0,15,0.00,,,0.00,216.000000,,2013-01-23 18:12:00,
2013-01-23 13:23:00,41.0,-3.0,-100.00,NW,316,3.0,8.0,15,0.00,,,0.00,216.000000,,2013-01-23 18:23:00,
2013-01-23 13:33:00,41.0,-3.0,-100.00,NW,316,3.0,8.0,15,0.00,,,0.00,216.000000,,2013-01-23 18:33:00,
2013-01-23 14:03:00,43.0,-3.0,-100.00,WNW,291,3.0,6.0,14,0.00,,,0.00,244.000000,,2013-01-23 19:03:00,
2013-01-23 14:13:00,43.0,-3.0,-100.00,WNW,291,3.0,6.0,14,0.00,,,0.00,244.000000,,2013-01-23 19:13:00,
2013-01-23 14:23:00,43.0,-3.0,-100.00,WNW,291,3.0,6.0,14,0.00,,,0.00,244.000000,,2013-01-23 19:23:00,
2013-01-23 14:33:00,43.0,-3.0,-100.00,WNW,291,3.0,6.0,14,0.00,,,0.00,244.000000,,2013-01-23 19:33:00,
2013-01-23 15:03:00,42.0,7.0,-100.00,WSW,245,3.0,10.0,23,0.00,,,0.00,283.000000,,2013-01-23 20:03:00,
2013-01-23 15:13:00,42.0,7.0,-100.00,WSW,245,3.0,10.0,23,0.00,,,0.00,283.000000,,2013-01-23 20:13:00,
2013-01-23 15:23:00,42.0,7.0,-100.00,WSW,245,3.0,10.0,23,0.00,,,0.00,283.000000,,2013-01-23 20:23:00,
2013-01-23 15:33:00,42.0,7.0,-100.00,WSW,245,3.0,10.0,23,0.00,,,0.00,283.000000,,2013-01-23 20:33:00,
2013-01-23 15:54:00,37.0,10.0,-100.00,SSE,155,3.0,5.0,32,0.00,,,0.00,233.000000,,2013-01-23 20:54:00,
2013-01-23 16:03:00,37.0,10.0,-100.00,SSE,155,3.0,5.0,32,0.00,,,0.00,233.000000,,2013-01-23 21:03:00,
2013-01-23 16:12:00,37.0,10.0,-100.00,SSE,155,3.0,5.0,32,0.00,,,0.00,233.000000,,2013-01-23 21:12:00,
2013-01-23 16:23:00,37.0,10.0,-100.00,SSE,155,3.0,5.0,32,0.00,,,0.00,233.000000,,2013-01-23 21:23:00,
2013-01-23 16:33:00,37.0,10.0,-100.00,SSE,155,3.0,5.0,32,0.00,,,0.00,233.000000,,2013-01-23 21:33:00,
2013-01-23 16:53:00,34.0,9.0,-100.00,South,185,3.0,6.0,34,0.00,,,0.00,181.000000,,2013-01-23 21:53:00,
2013-01-23 17:02:00,34.0,9.0,-100.00,South,185,3.0,6.0,34,0.00,,,0.00,181.000000,,2013-01-23 22:02:00,
2013-01-23 17:12:00,34.0,9.0,-100.00,South,185,3.0,6.0,34,0.00,,,0.00,181.000000,,2013-01-23 22:12:00,
2013-01-23 17:23:00,34.0,9.0,-100.00,South,185,3.0,6.0,34,0.00,,,0.00,181.000000,,2013-01-23 22:23:00,
2013-01-23 17:33:00,34.0,9.0,-100.00,South,185,3.0,6.0,34,0.00,,,0.00,181.000000,,2013-01-23 22:33:00,
2013-01-23 18:03:00,34.0,4.0,-100.00,East,90,0.0,5.0,27,0.00,,,0.00,95.000000,,2013-01-23 23:03:00,
2013-01-23 18:12:00,34.0,4.0,-100.00,East,90,0.0,5.0,27,0.00,,,0.00,95.000000,,2013-01-23 23:12:00,
2013-01-23 18:23:00,34.0,4.0,-100.00,East,90,0.0,5.0,27,0.00,,,0.00,95.000000,,2013-01-23 23:23:00,
2013-01-23 18:33:00,34.0,4.0,-100.00,East,90,0.0,5.0,27,0.00,,,0.00,95.000000,,2013-01-23 23:33:00,
2013-01-23 19:03:00,31.0,3.0,-100.00,ESE,116,1.0,3.0,30,0.00,,,0.00,29.000000,,2013-01-24 00:03:00,
2013-01-23 19:12:00,31.0,3.0,-100.00,ESE,116,1.0,3.0,30,0.00,,,0.00,29.000000,,2013-01-24 00:12:00,
2013-01-23 19:22:00,31.0,3.0,-100.00,ESE,116,1.0,3.0,30,0.00,,,0.00,29.000000,,2013-01-24 00:22:00,
2013-01-23 19:32:00,31.0,3.0,-100.00,ESE,116,1.0,3.0,30,0.00,,,0.00,29.000000,,2013-01-24 00:32:00,
2013-01-23 20:03:00,28.0,8.0,-100.00,ESE,113,0.0,2.0,42,0.00,,,0.00,2.000000,,2013-01-24 01:03:00,
2013-01-23 20:12:00,28.0,8.0,-100.00,ESE,113,0.0,2.0,42,0.00,,,0.00,2.000000,,2013-01-24 01:12:00,
2013-01-23 20:23:00,28.0,8.0,-100.00,ESE,113,0.0,2.0,42,0.00,,,0.00,2.000000,,2013-01-24 01:23:00,
2013-01-23 20:33:00,28.0,8.0,-100.00,ESE,113,0.0,2.0,42,0.00,,,0.00,2.000000,,2013-01-24 01:33:00,
2013-01-23 21:02:00,31.0,2.0,-100.00,South,182,3.0,5.0,28,0.00,,,0.00,0.000000,,2013-01-24 02:02:00,
2013-01-23 21:12:00,31.0,2.0,-100.00,South,182,3.0,5.0,28,0.00,,,0.00,0.000000,,2013-01-24 02:12:00,
2013-01-23 21:22:00,31.0,2.0,-100.00,South,182,3.0,5.0,28,0.00,,,0.00,0.000000,,2013-01-24 02:22:00,
2013-01-23 21:33:00,31.0,2.0,-100.00,South,182,3.0,5.0,28,0.00,,,0.00,0.000000,,2013-01-24 02:33:00,
2013-01-23 22:02:00,31.0,0.0,-100.00,South,186,3.0,6.0,26,0.00,,,0.00,0.000000,,2013-01-24 03:02:00,
2013-01-23 22:12:00,31.0,0.0,-100.00,South,186,3.0,6.0,26,0.00,,,0.00,0.000000,,2013-01-24 03:12:00,
2013-01-23 22:22:00,31.0,0.0,-100.00,South,186,3.0,6.0,26,0.00,,,0.00,0.000000,,2013-01-24 03:22:00,
2013-01-23 22:33:00,31.0,0.0,-100.00,South,186,3.0,6.0,26,0.00,,,0.00,0.000000,,2013-01-24 03:33:00,
2013-01-23 22:53:00,31.0,0.0,-100.00,South,180,3.0,5.0,26,0.00,,,0.00,0.000000,,2013-01-24 03:53:00,
2013-01-23 23:02:00,31.0,0.0,-100.00,South,180,3.0,5.0,26,0.00,,,0.00,0.000000,,2013-01-24 04:02:00,
2013-01-23 23:12:00,31.0,0.0,-100.00,South,180,3.0,5.0,26,0.00,,,0.00,0.000000,,2013-01-24 04:12:00,
2013-01-23 23:22:00,31.0,0.0,-100.00,South,180,3.0,5.0,26,0.00,,,0.00,0.000000,,2013-01-24 04:22:00,
2013-01-23 23:32:00,31.0,0.0,-100.00,South,180,3.0,5.0,26,0.00,,,0.00,0.000000,,2013-01-24 04:32:00,